Time,TemperatureF,DewpointF,PressureIn,WindDirection,WindDirectionDegrees,WindSpeedMPH,WindSpeedGustMPH,Humidity,HourlyPrecipIn,Conditions,Clouds,dailyrainin,SoftwareType,DateUTC
2013-02-27 00:02:00,31.0,26.0,29.98,ENE,61,0.0,1.0,83,0.00,,,0.02,,2013-02-27 06:02:00,
2013-02-27 00:11:00,31.0,26.0,29.98,ENE,61,0.0,1.0,83,0.00,,,0.02,,2013-02-27 06:11:00,
2013-02-27 00:21:00,31.0,27.0,29.98,East,89,0.0,2.0,84,0.00,,,0.02,,2013-02-27 06:21:00,
2013-02-27 00:33:00,31.0,27.0,29.97,East,99,0.0,3.0,84,0.00,,,0.01,,2013-02-27 06:33:00,
2013-02-27 00:41:00,31.0,27.0,29.97,East,99,0.0,3.0,84,0.00,,,0.01,,2013-02-27 06:41:00,
2013-02-27 00:51:00,31.0,27.0,29.97,ENE,77,0.0,4.0,85,0.00,,,0.01,,2013-02-27 06:51:00,
2013-02-27 01:01:00,30.0,26.0,29.97,East,89,0.0,2.0,85,0.00,,,0.01,,2013-02-27 07:01:00,
2013-02-27 01:12:00,30.0,26.0,29.97,East,89,0.0,2.0,85,0.00,,,0.01,,2013-02-27 07:12:00,
2013-02-27 01:21:00,31.0,27.0,29.98,East,97,0.0,4.0,85,0.00,,,0.01,,2013-02-27 07:21:00,
2013-02-27 01:32:00,31.0,27.0,29.99,NE,37,0.0,4.0,85,0.00,,,0.01,,2013-02-27 07:32:00,
2013-02-27 01:41:00,31.0,27.0,29.99,NE,37,0.0,4.0,85,0.00,,,0.01,,2013-02-27 07:41:00,
2013-02-27 01:51:00,31.0,27.0,30.01,ENE,72,1.0,4.0,84,0.00,,,0.01,,2013-02-27 07:51:00,
2013-02-27 02:01:00,31.0,27.0,30.02,NE,50,1.0,6.0,84,0.00,,,0.01,,2013-02-27 08:01:00,
2013-02-27 02:11:00,31.0,27.0,30.02,NE,50,1.0,6.0,84,0.00,,,0.01,,2013-02-27 08:11:00,
2013-02-27 02:21:00,31.0,27.0,30.02,East,84,1.0,6.0,84,0.00,,,0.01,,2013-02-27 08:21:00,
2013-02-27 02:32:00,31.0,27.0,30.01,East,82,2.0,5.0,84,0.00,,,0.00,,2013-02-27 08:32:00,
2013-02-27 02:42:00,31.0,27.0,30.01,East,82,2.0,5.0,84,0.00,,,0.00,,2013-02-27 08:42:00,
2013-02-27 02:52:00,31.0,27.0,30.02,SE,131,0.0,5.0,84,0.00,,,0.00,,2013-02-27 08:52:00,
2013-02-27 03:02:00,31.0,27.0,30.02,East,94,2.0,4.0,84,0.00,,,0.00,,2013-02-27 09:02:00,
2013-02-27 03:12:00,31.0,27.0,30.02,East,94,2.0,4.0,84,0.00,,,0.00,,2013-02-27 09:12:00,
2013-02-27 03:21:00,31.0,27.0,30.02,NE,53,1.0,6.0,84,0.00,,,0.00,,2013-02-27 09:21:00,
2013-02-27 03:32:00,31.0,26.0,30.02,NE,39,1.0,5.0,83,0.00,,,0.00,,2013-02-27 09:32:00,
2013-02-27 03:41:00,31.0,26.0,30.02,NE,39,1.0,5.0,83,0.00,,,0.00,,2013-02-27 09:41:00,
2013-02-27 03:51:00,31.0,26.0,30.02,NNE,27,1.0,6.0,83,0.00,,,0.00,,2013-02-27 09:51:00,
2013-02-27 04:01:00,31.0,26.0,30.02,ESE,105,2.0,6.0,83,0.00,,,0.00,,2013-02-27 10:01:00,
2013-02-27 04:12:00,31.0,26.0,30.02,ESE,105,2.0,6.0,83,0.00,,,0.00,,2013-02-27 10:12:00,
2013-02-27 04:22:00,31.0,26.0,30.03,ENE,63,1.0,5.0,83,0.00,,,0.00,,2013-02-27 10:22:00,
2013-02-27 04:32:00,31.0,26.0,30.03,ESE,109,1.0,6.0,83,0.00,,,0.00,,2013-02-27 10:32:00,
2013-02-27 04:42:00,31.0,26.0,30.03,ESE,109,1.0,6.0,83,0.00,,,0.00,,2013-02-27 10:42:00,
2013-02-27 04:52:00,31.0,26.0,30.03,NE,36,1.0,5.0,83,0.00,,,0.00,,2013-02-27 10:52:00,
2013-02-27 05:02:00,31.0,26.0,30.04,NE,50,0.0,5.0,83,0.00,,,0.00,,2013-02-27 11:02:00,
2013-02-27 05:12:00,31.0,26.0,30.04,NE,50,0.0,5.0,83,0.00,,,0.00,,2013-02-27 11:12:00,
2013-02-27 05:22:00,30.0,26.0,30.05,NE,49,1.0,3.0,84,0.00,,,0.00,,2013-02-27 11:22:00,
2013-02-27 05:32:00,30.0,26.0,30.06,NNE,27,1.0,3.0,85,0.00,,,0.00,,2013-02-27 11:32:00,
2013-02-27 05:42:00,30.0,26.0,30.06,NNE,27,1.0,3.0,85,0.00,,,0.00,,2013-02-27 11:42:00,
2013-02-27 05:52:00,29.0,25.0,30.06,ENE,63,1.0,4.0,85,0.00,,,0.00,,2013-02-27 11:52:00,
2013-02-27 06:02:00,28.0,24.0,30.06,East,94,2.0,5.0,86,0.00,,,0.00,,2013-02-27 12:02:00,
2013-02-27 06:13:00,28.0,24.0,30.06,East,94,2.0,5.0,86,0.00,,,0.00,,2013-02-27 12:13:00,
2013-02-27 06:22:00,28.0,24.0,30.08,NE,55,1.0,6.0,86,0.00,,,0.00,,2013-02-27 12:22:00,
2013-02-27 06:33:00,28.0,24.0,30.09,NE,50,2.0,5.0,86,0.00,,,0.00,,2013-02-27 12:33:00,
2013-02-27 06:42:00,28.0,24.0,30.09,NE,50,2.0,5.0,86,0.00,,,0.00,,2013-02-27 12:42:00,
2013-02-27 06:52:00,28.0,25.0,30.09,NE,40,2.0,7.0,87,0.00,,,0.00,,2013-02-27 12:52:00,
2013-02-27 07:02:00,27.0,23.0,30.10,ENE,63,2.0,8.0,86,0.00,,,0.00,,2013-02-27 13:02:00,
2013-02-27 07:11:00,27.0,23.0,30.10,ENE,63,2.0,8.0,86,0.00,,,0.00,,2013-02-27 13:11:00,
2013-02-27 07:22:00,27.0,23.0,30.10,ENE,61,2.0,6.0,86,0.00,,,0.00,,2013-02-27 13:22:00,
2013-02-27 07:32:00,27.0,23.0,30.11,East,81,2.0,5.0,86,0.00,,,0.00,,2013-02-27 13:32:00,
2013-02-27 07:42:00,27.0,23.0,30.11,East,81,2.0,5.0,86,0.00,,,0.00,,2013-02-27 13:42:00,
2013-02-27 07:52:00,27.0,24.0,30.11,NE,55,1.0,3.0,87,0.00,,,0.00,,2013-02-27 13:52:00,
2013-02-27 08:02:00,27.0,24.0,30.12,North,356,1.0,3.0,87,0.00,,,0.00,,2013-02-27 14:02:00,
2013-02-27 08:12:00,27.0,24.0,30.12,North,356,1.0,3.0,87,0.00,,,0.00,,2013-02-27 14:12:00,
2013-02-27 08:21:00,27.0,24.0,30.13,NNE,32,1.0,4.0,88,0.00,,,0.00,,2013-02-27 14:21:00,
2013-02-27 08:32:00,28.0,24.0,30.14,NE,39,1.0,5.0,86,0.00,,,0.00,,2013-02-27 14:32:00,
2013-02-27 08:42:00,28.0,24.0,30.14,NE,39,1.0,5.0,86,0.00,,,0.00,,2013-02-27 14:42:00,
2013-02-27 08:52:00,29.0,25.0,30.15,ENE,72,3.0,7.0,84,0.00,,,0.00,,2013-02-27 14:52:00,
2013-02-27 09:02:00,30.0,25.0,30.16,NE,43,4.0,7.0,83,0.00,,,0.00,,2013-02-27 15:02:00,
2013-02-27 09:12:00,30.0,25.0,30.16,NE,43,4.0,7.0,83,0.00,,,0.00,,2013-02-27 15:12:00,
2013-02-27 09:22:00,31.0,26.0,30.16,NNE,33,3.0,8.0,81,0.00,,,0.00,,2013-02-27 15:22:00,
2013-02-27 09:32:00,32.0,27.0,30.16,NE,50,3.0,8.0,80,0.00,,,0.00,,2013-02-27 15:32:00,
2013-02-27 09:42:00,32.0,27.0,30.16,NE,50,3.0,8.0,80,0.00,,,0.00,,2013-02-27 15:42:00,
2013-02-27 09:52:00,33.0,26.0,30.17,ENE,75,4.0,9.0,76,0.00,,,0.00,,2013-02-27 15:52:00,
2013-02-27 10:02:00,34.0,27.0,30.17,North,9,4.0,9.0,74,0.00,,,0.00,,2013-02-27 16:02:00,
2013-02-27 10:12:00,34.0,27.0,30.17,North,9,4.0,9.0,74,0.00,,,0.00,,2013-02-27 16:12:00,
2013-02-27 10:22:00,35.0,27.0,30.17,NE,51,3.0,8.0,72,0.00,,,0.00,,2013-02-27 16:22:00,
2013-02-27 10:32:00,37.0,28.0,30.17,NE,45,3.0,8.0,70,0.00,,,0.00,,2013-02-27 16:32:00,
2013-02-27 10:42:00,37.0,28.0,30.17,NE,45,3.0,8.0,70,0.00,,,0.00,,2013-02-27 16:42:00,
2013-02-27 10:52:00,38.0,27.0,30.18,NNE,27,5.0,11.0,65,0.00,,,0.00,,2013-02-27 16:52:00,
2013-02-27 11:02:00,39.0,27.0,30.18,NNW,342,5.0,11.0,62,0.00,,,0.00,,2013-02-27 17:02:00,
2013-02-27 11:11:00,39.0,27.0,30.18,NNW,342,5.0,11.0,62,0.00,,,0.00,,2013-02-27 17:11:00,
2013-02-27 11:21:00,40.0,28.0,30.18,NE,41,4.0,13.0,61,0.00,,,0.00,,2013-02-27 17:21:00,
2013-02-27 11:32:00,41.0,28.0,30.19,NE,36,5.0,10.0,60,0.00,,,0.00,,2013-02-27 17:32:00,
2013-02-27 11:42:00,41.0,28.0,30.19,NE,36,5.0,10.0,60,0.00,,,0.00,,2013-02-27 17:42:00,
2013-02-27 11:52:00,42.0,28.0,30.19,ENE,64,4.0,11.0,58,0.00,,,0.00,,2013-02-27 17:52:00,
2013-02-27 12:01:00,42.0,27.0,30.19,SSE,157,5.0,11.0,55,0.00,,,0.00,,2013-02-27 18:01:00,
2013-02-27 12:11:00,42.0,27.0,30.19,SSE,157,5.0,11.0,55,0.00,,,0.00,,2013-02-27 18:11:00,
2013-02-27 12:22:00,42.0,27.0,30.19,ENE,72,5.0,11.0,55,0.00,,,0.00,,2013-02-27 18:22:00,
2013-02-27 12:32:00,42.0,27.0,30.19,NW,312,4.0,13.0,55,0.00,,,0.00,,2013-02-27 18:32:00,
2013-02-27 12:42:00,42.0,27.0,30.19,NW,312,4.0,13.0,55,0.00,,,0.00,,2013-02-27 18:42:00,
2013-02-27 12:51:00,43.0,29.0,30.19,NW,314,5.0,11.0,57,0.00,,,0.00,,2013-02-27 18:51:00,
2013-02-27 13:01:00,43.0,28.0,30.19,East,90,4.0,11.0,54,0.00,,,0.00,,2013-02-27 19:01:00,
2013-02-27 13:12:00,43.0,28.0,30.19,East,90,4.0,11.0,54,0.00,,,0.00,,2013-02-27 19:12:00,
2013-02-27 13:21:00,43.0,27.0,30.19,NNW,342,4.0,18.0,52,0.00,,,0.00,,2013-02-27 19:21:00,
2013-02-27 13:32:00,43.0,27.0,30.19,North,3,5.0,21.0,52,0.00,,,0.00,,2013-02-27 19:32:00,
2013-02-27 13:42:00,43.0,27.0,30.19,North,3,5.0,21.0,52,0.00,,,0.00,,2013-02-27 19:42:00,
2013-02-27 13:52:00,43.0,27.0,30.19,ENE,59,6.0,18.0,52,0.00,,,0.00,,2013-02-27 19:52:00,
2013-02-27 14:01:00,44.0,28.0,30.19,ENE,60,5.0,13.0,52,0.00,,,0.00,,2013-02-27 20:01:00,
2013-02-27 14:11:00,44.0,28.0,30.19,ENE,60,5.0,13.0,52,0.00,,,0.00,,2013-02-27 20:11:00,
2013-02-27 14:21:00,44.0,26.0,30.19,NE,49,8.0,16.0,48,0.00,,,0.00,,2013-02-27 20:21:00,
2013-02-27 14:32:00,44.0,26.0,30.19,North,9,6.0,15.0,49,0.00,,,0.00,,2013-02-27 20:32:00,
2013-02-27 14:42:00,44.0,26.0,30.19,North,9,6.0,15.0,49,0.00,,,0.00,,2013-02-27 20:42:00,
2013-02-27 14:52:00,44.0,27.0,30.19,SE,131,7.0,15.0,50,0.00,,,0.00,,2013-02-27 20:52:00,
2013-02-27 15:02:00,44.0,27.0,30.19,ENE,64,6.0,15.0,51,0.00,,,0.00,,2013-02-27 21:02:00,
2013-02-27 15:11:00,44.0,27.0,30.19,ENE,64,6.0,15.0,51,0.00,,,0.00,,2013-02-27 21:11:00,
2013-02-27 15:22:00,44.0,27.0,30.19,East,79,5.0,16.0,51,0.00,,,0.00,,2013-02-27 21:22:00,
2013-02-27 15:32:00,44.0,27.0,30.20,North,356,6.0,16.0,51,0.00,,,0.00,,2013-02-27 21:32:00,
2013-02-27 15:42:00,44.0,27.0,30.20,North,356,6.0,16.0,51,0.00,,,0.00,,2013-02-27 21:42:00,
2013-02-27 15:51:00,44.0,28.0,30.20,NE,38,5.0,15.0,52,0.00,,,0.00,,2013-02-27 21:51:00,
2013-02-27 16:01:00,44.0,27.0,30.21,ESE,108,6.0,12.0,50,0.00,,,0.00,,2013-02-27 22:01:00,
2013-02-27 16:11:00,44.0,27.0,30.21,ESE,108,6.0,12.0,50,0.00,,,0.00,,2013-02-27 22:11:00,
2013-02-27 16:21:00,44.0,27.0,30.22,NE,52,6.0,13.0,51,0.00,,,0.00,,2013-02-27 22:21:00,
2013-02-27 16:32:00,43.0,26.0,30.22,ENE,77,7.0,17.0,51,0.00,,,0.00,,2013-02-27 22:32:00,
2013-02-27 16:42:00,43.0,26.0,30.22,ENE,77,7.0,17.0,51,0.00,,,0.00,,2013-02-27 22:42:00,
2013-02-27 16:51:00,43.0,27.0,30.21,ENE,63,5.0,15.0,52,0.00,,,0.00,,2013-02-27 22:51:00,
2013-02-27 17:01:00,43.0,27.0,30.21,ESE,115,7.0,15.0,52,0.00,,,0.00,,2013-02-27 23:01:00,
2013-02-27 17:11:00,43.0,27.0,30.21,ESE,115,7.0,15.0,52,0.00,,,0.00,,2013-02-27 23:11:00,
2013-02-27 17:21:00,42.0,26.0,30.22,NE,35,7.0,13.0,53,0.00,,,0.00,,2013-02-27 23:21:00,
2013-02-27 17:32:00,42.0,27.0,30.22,NE,35,5.0,15.0,54,0.00,,,0.00,,2013-02-27 23:32:00,
2013-02-27 17:42:00,42.0,27.0,30.22,NE,35,5.0,15.0,54,0.00,,,0.00,,2013-02-27 23:42:00,
2013-02-27 17:52:00,41.0,27.0,30.22,NE,35,3.0,11.0,57,0.00,,,0.00,,2013-02-27 23:52:00,
2013-02-27 18:02:00,41.0,27.0,30.22,NE,35,3.0,11.0,57,0.00,,,0.00,,2013-02-28 00:02:00,
2013-02-27 18:11:00,41.0,27.0,30.22,NE,35,3.0,11.0,57,0.00,,,0.00,,2013-02-28 00:11:00,
2013-02-27 18:21:00,39.0,26.0,30.23,NNE,32,5.0,11.0,60,0.00,,,0.00,,2013-02-28 00:21:00,
2013-02-27 18:32:00,38.0,26.0,30.24,NE,53,5.0,10.0,62,0.00,,,0.00,,2013-02-28 00:32:00,
2013-02-27 18:41:00,37.0,27.0,30.25,NE,36,2.0,9.0,67,0.00,,,0.00,,2013-02-28 00:41:00,
2013-02-27 18:42:00,38.0,26.0,30.24,NE,53,5.0,10.0,62,0.00,,,0.00,,2013-02-28 00:42:00,
2013-02-27 18:51:00,38.0,27.0,30.24,NNE,32,4.0,8.0,64,0.00,,,0.00,,2013-02-28 00:51:00,
2013-02-27 19:01:00,37.0,27.0,30.25,NE,36,2.0,9.0,67,0.00,,,0.00,,2013-02-28 01:01:00,
2013-02-27 19:11:00,37.0,27.0,30.25,NE,36,2.0,9.0,67,0.00,,,0.00,,2013-02-28 01:11:00,
2013-02-27 19:21:00,37.0,27.0,30.25,NE,36,2.0,9.0,67,0.00,,,0.00,,2013-02-28 01:21:00,
2013-02-27 19:32:00,37.0,27.0,30.25,NE,36,2.0,9.0,67,0.00,,,0.00,,2013-02-28 01:32:00,
2013-02-27 19:52:00,35.0,27.0,30.26,NE,37,2.0,5.0,71,0.00,,,0.00,,2013-02-28 01:52:00,
2013-02-27 20:01:00,35.0,27.0,30.27,ENE,58,1.0,4.0,72,0.00,,,0.00,,2013-02-28 02:01:00,
2013-02-27 20:11:00,35.0,27.0,30.27,ENE,58,1.0,4.0,72,0.00,,,0.00,,2013-02-28 02:11:00,
2013-02-27 20:22:00,34.0,27.0,30.27,East,98,1.0,6.0,74,0.00,,,0.00,,2013-02-28 02:22:00,
2013-02-27 20:32:00,34.0,27.0,30.27,NE,47,1.0,4.0,74,0.00,,,0.00,,2013-02-28 02:32:00,
2013-02-27 20:41:00,34.0,27.0,30.27,NE,47,1.0,4.0,74,0.00,,,0.00,,2013-02-28 02:41:00,
2013-02-27 20:51:00,34.0,27.0,30.27,NE,47,1.0,4.0,74,0.00,,,0.00,,2013-02-28 02:51:00,
2013-02-27 21:01:00,33.0,26.0,30.27,ENE,72,2.0,4.0,74,0.00,,,0.00,,2013-02-28 03:01:00,
2013-02-27 21:11:00,33.0,26.0,30.27,ENE,72,2.0,4.0,74,0.00,,,0.00,,2013-02-28 03:11:00,
2013-02-27 21:21:00,33.0,26.0,30.27,NE,41,2.0,4.0,75,0.00,,,0.00,,2013-02-28 03:21:00,
2013-02-27 21:32:00,33.0,27.0,30.28,NE,36,1.0,4.0,77,0.00,,,0.00,,2013-02-28 03:32:00,
2013-02-27 21:42:00,33.0,27.0,30.28,NE,36,1.0,4.0,77,0.00,,,0.00,,2013-02-28 03:42:00,
2013-02-27 21:52:00,32.0,26.0,30.27,NE,56,1.0,4.0,79,0.00,,,0.00,,2013-02-28 03:52:00,
2013-02-27 22:01:00,32.0,27.0,30.27,NE,51,1.0,3.0,81,0.00,,,0.00,,2013-02-28 04:01:00,
2013-02-27 22:11:00,32.0,27.0,30.27,NE,51,1.0,3.0,81,0.00,,,0.00,,2013-02-28 04:11:00,
2013-02-27 22:21:00,31.0,26.0,30.27,NE,35,0.0,4.0,82,0.00,,,0.00,,2013-02-28 04:21:00,
2013-02-27 22:32:00,31.0,26.0,30.27,NE,35,0.0,4.0,82,0.00,,,0.00,,2013-02-28 04:32:00,
2013-02-27 22:42:00,31.0,26.0,30.27,NE,35,0.0,4.0,82,0.00,,,0.00,,2013-02-28 04:42:00,
2013-02-27 22:52:00,31.0,27.0,30.28,NE,35,0.0,2.0,84,0.00,,,0.00,,2013-02-28 04:52:00,
2013-02-27 23:01:00,31.0,27.0,30.28,East,91,0.0,2.0,84,0.00,,,0.00,,2013-02-28 05:01:00,
2013-02-27 23:11:00,31.0,27.0,30.28,East,91,0.0,2.0,84,0.00,,,0.00,,2013-02-28 05:11:00,
2013-02-27 23:22:00,31.0,27.0,30.28,East,91,0.0,2.0,84,0.00,,,0.00,,2013-02-28 05:22:00,
2013-02-27 23:31:00,32.0,28.0,30.28,East,91,1.0,5.0,84,0.00,,,0.00,,2013-02-28 05:31:00,
2013-02-27 23:42:00,32.0,28.0,30.28,East,91,1.0,5.0,84,0.00,,,0.00,,2013-02-28 05:42:00,
2013-02-27 23:52:00,32.0,28.0,30.28,ESE,120,0.0,5.0,84,0.00,,,0.00,,2013-02-28 05:52:00,